Wind_Speed
15 15 15 16 15 14 13 12 11 9 8 8 8 10 12 13 13 13 9 5 4 5 8 7 5 5 8 9 8 6 7 10 11 12 9 4 2 5 11 16 11 8 6 15 24
16 16 15 16 17 16 13 11 10 9 8 8 9 10 12 13 10 4 5 1 2 1 2 4 4 5 4 6 7 9 8 14 7 12 9 6 2 5 3 12 19 13 16 19 21
16 16 16 16 17 17 14 11 10 9 8 8 8 10 10 10 2 3 4 3 4 5 3 1 6 5 5 3 7 5 10 6 9 8 4 5 4 2 3 16 14 17 22 23 18
17 17 16 16 16 15 13 10 9 8 7 8 7 8 8 3 2 1 4 6 5 6 6 5 4 5 3 6 2 6 3 4 11 6 3 5 3 6 11 17 20 17 23 14 14
19 19 17 16 15 13 12 9 8 7 6 7 7 7 5 2 1 2 5 3 4 5 6 5 4 3 3 1 1 5 2 5 8 8 7 8 13 11 20 18 24 18 15 17 18
20 19 18 16 14 11 9 7 5 5 6 5 6 6 3 3 6 6 5 2 4 4 3 3 2 1 3 2 3 1 4 9 10 11 9 9 18 8 13 10 17 22 20 13 10
19 19 17 15 11 7 7 6 5 4 5 4 6 4 6 4 7 6 4 2 1 4 3 1 1 1 1 2 1 1 6 6 13 9 8 7 16 12 1 2 15 39 33 19 12
19 18 15 13 9 6 7 8 4 1 2 3 4 4 4 6 9 8 4 2 3 2 1 2 1 1 1 0 3 1 1 5 1 4 2 5 16 2 11 10 7 10 12 10 11
18 16 13 10 4 6 6 10 3 2 2 1 2 2 2 7 6 7 6 2 1 3 4 6 4 1 1 1 2 1 2 2 5 6 5 1 6 6 10 15 12 19 13 11 7
17 14 11 6 2 5 6 5 3 3 3 1 1 1 2 3 2 6 6 4 3 1 5 3 2 2 1 2 3 1 1 2 4 5 6 12 14 11 24 17 16 15 21 15 11
15 12 10 2 3 3 5 1 3 3 6 3 2 3 4 1 4 7 7 5 4 1 1 2 5 5 4 4 3 3 4 6 5 7 7 12 18 18 22 21 21 20 20 21 12
15 12 8 2 4 2 5 4 5 4 6 3 7 11 8 6 3 9 5 4 1 3 2 3 8 6 5 3 4 4 5 7 7 6 11 14 20 18 17 17 22 22 20 17 12
15 11 4 5 4 6 6 7 6 7 3 4 2 1 5 8 4 5 12 5 4 4 5 4 1 5 4 3 5 5 7 6 9 8 12 12 12 5 8 13 12 15 12 8 13
14 8 2 8 6 3 2 7 8 5 2 1 2 2 3 3 4 3 10 7 3 5 4 5 0 5 5 4 6 8 5 6 8 8 8 6 8 10 14 6 5 5 10 13 8
12 7 5 7 4 1 6 8 3 1 2 2 2 2 3 4 4 0 9 10 11 7 5 4 3 6 8 10 9 6 1 6 8 12 11 13 7 4 3 6 1 6 9 12 9
10 7 6 3 2 7 8 2 2 2 2 2 1 2 3 1 2 4 3 6 3 7 7 13 2 5 7 2 8 3 4 8 4 4 6 5 7 4 4 8 5 10 12 8 9
10 8 5 4 5 7 4 3 1 3 2 1 1 3 3 2 2 2 2 3 7 6 11 5 6 2 4 6 3 3 3 6 3 4 4 4 9 11 10 11 15 16 16 13 7
5 5 5 5 6 7 1 1 4 1 2 0 1 4 3 2 1 3 2 4 3 3 4 7 9 6 5 5 3 4 4 5 5 4 7 10 9 3 6 12 17 17 11 13 14
4 4 5 6 7 6 1 1 2 3 1 3 5 3 2 3 3 3 4 6 5 8 6 5 6 2 6 1 3 4 7 2 7 9 8 7 12 13 15 8 5 6 3 11 15
8 8 4 6 9 3 1 3 3 2 2 2 5 5 5 3 3 3 3 2 3 6 1 1 6 5 4 1 6 9 8 4 2 4 6 6 17 12 15 11 5 8 14 17 27
4 3 3 8 9 1 2 3 4 5 3 6 5 6 7 6 8 5 5 4 5 6 4 4 5 3 3 7 7 5 7 4 3 4 4 8 6 3 9 13 11 13 12 27 27
3 2 3 6 1 2 1 1 4 5 2 4 4 8 7 5 5 8 9 9 6 9 6 5 3 9 14 11 7 8 11 10 6 6 7 11 18 13 16 12 8 16 27 26 21
11 4 3 6 0 2 3 4 5 4 3 2 3 3 1 4 4 8 8 3 8 9 7 6 4 6 7 4 4 6 10 10 9 4 15 11 12 3 8 19 28 27 22 21 20
8 3 4 5 5 2 4 4 4 3 5 3 4 1 2 4 7 6 3 1 1 2 3 4 6 12 14 10 1 5 9 12 13 9 16 18 30 27 26 22 21 24 24 18 22
7 3 3 4 2 3 2 3 5 5 1 3 2 3 2 5 6 8 5 5 7 7 7 4 13 15 19 22 21 24 26 24 22 23 18 23 23 28 23 23 21 23 17 17 22
5 4 3 6 5 3 2 3 4 3 2 4 6 5 3 6 9 16 17 15 15 8 8 6 10 12 15 13 15 19 25 25 26 26 25 27 27 25 26 20 17 15 14 18 23
7 4 3 4 1 2 3 2 1 3 7 12 8 8 11 16 15 17 18 21 16 11 9 5 5 3 12 9 11 13 25 23 22 19 17 17 18 15 16 15 16 18 17 22 28
Wind_Direction
358 355 352 347 342 333 326 324 325 323 321 321 319 319 318 321 319 311 309 273 265 276 239 235 232 219 206 199 190 191 226 232 229 225 241 213 158 213 241 269 286 298 333 328 342
359 355 351 347 343 336 324 316 317 318 317 315 319 321 322 327 334 31 24 96 137 15 278 243 195 184 175 195 190 208 233 224 222 238 234 234 314 9 345 291 278 283 300 326 336
357 353 350 347 343 338 328 310 307 311 311 309 319 323 326 336 48 40 22 91 80 60 64 154 169 147 190 184 196 195 241 228 221 239 294 268 260 199 192 278 287 302 316 325 339
353 350 348 346 344 340 333 315 298 300 300 299 317 324 324 339 140 38 62 103 80 58 60 80 140 128 178 202 202 235 225 255 246 265 272 253 252 253 246 255 278 289 304 320 337
345 347 345 344 344 343 337 324 306 293 290 296 312 319 322 271 182 142 127 97 54 52 56 71 90 137 175 210 262 230 196 272 271 270 255 256 251 255 263 271 282 290 298 310 314
341 341 342 343 345 345 345 334 312 290 283 288 303 307 281 249 145 137 135 76 27 22 18 63 60 59 134 209 229 194 267 280 281 265 257 260 270 242 267 277 293 290 305 339 322
339 339 340 343 344 354 352 336 315 289 276 287 308 294 254 204 160 169 180 182 62 32 22 343 17 67 209 234 200 271 276 261 253 259 247 252 262 251 306 50 255 262 274 282 303
338 338 340 345 348 0 351 354 318 275 252 305 314 308 252 180 180 194 217 263 271 282 251 289 250 208 250 40 14 323 248 248 150 319 58 190 255 188 8 3 308 302 311 287 269
336 338 341 348 10 14 356 1 16 82 74 318 308 312 245 184 197 209 233 222 217 256 236 237 212 162 89 280 222 78 223 319 310 348 342 218 288 283 321 327 307 310 317 307 312
337 337 341 353 51 17 12 34 55 75 357 327 270 328 121 177 223 204 223 271 273 263 152 175 114 168 127 220 244 236 237 234 286 322 308 292 284 290 300 293 280 286 302 293 286
342 342 342 24 118 56 13 322 331 316 308 240 278 274 278 269 212 219 242 259 218 126 215 42 214 214 195 214 258 231 237 267 277 292 306 293 292 296 286 272 265 264 269 279 278
346 346 345 153 126 85 58 73 28 318 315 287 257 259 248 280 283 230 218 203 183 248 149 238 243 224 209 251 218 214 257 281 284 272 299 293 291 283 276 267 260 254 243 245 256
349 346 350 156 128 115 71 47 3 336 278 295 256 205 214 231 247 253 210 201 220 241 229 234 136 156 229 241 221 242 256 285 292 313 287 298 284 239 231 281 253 243 233 262 287
353 1 80 151 145 135 43 345 332 321 319 109 205 176 197 185 254 245 212 184 188 252 177 253 199 204 211 244 220 276 217 259 276 298 306 336 287 275 280 297 223 303 311 306 288
8 31 103 139 121 87 321 322 330 277 221 143 121 96 297 222 324 261 215 203 224 193 184 222 219 245 255 268 191 260 215 267 272 277 293 260 257 271 209 254 342 296 284 292 289
26 62 86 102 44 340 325 326 116 219 224 178 79 354 339 341 260 304 227 224 213 215 229 256 239 246 251 217 195 140 259 271 228 248 247 239 241 198 221 203 242 309 298 305 302
55 63 58 26 347 349 349 151 207 219 42 199 267 344 304 292 280 350 303 213 224 217 235 225 226 215 208 208 155 166 284 299 255 208 268 165 284 255 217 233 280 295 294 309 309
38 18 359 348 340 346 50 141 232 165 245 313 280 311 238 346 237 326 247 235 209 209 226 254 250 204 177 239 250 218 245 256 278 266 290 287 255 238 212 271 286 284 277 298 315
310 330 337 348 347 339 159 202 257 203 299 298 295 243 231 215 308 303 244 250 222 191 224 202 243 252 220 208 216 158 218 330 262 263 273 246 262 270 268 287 306 304 288 306 320
295 280 267 336 339 330 148 255 244 221 3 240 234 213 231 244 273 246 259 229 215 204 240 232 275 235 268 276 209 234 147 201 195 258 265 259 277 266 288 298 324 318 325 334 326
314 281 281 330 335 332 233 245 272 263 296 227 241 248 236 267 236 237 248 265 219 176 184 176 235 231 245 214 234 195 211 196 243 232 270 296 266 233 278 292 303 314 320 323 319
358 268 289 335 313 14 231 264 306 271 211 267 256 249 244 223 237 235 250 237 180 172 202 198 227 263 274 269 260 247 244 221 231 203 234 275 276 272 274 293 305 306 315 316 314
340 295 328 346 4 324 314 276 267 268 234 263 268 245 204 224 259 245 254 303 185 184 192 179 212 282 281 169 148 209 201 208 230 252 245 262 268 137 240 294 294 302 303 306 308
353 338 358 50 81 51 332 277 287 292 268 270 272 241 233 245 233 270 245 337 226 199 144 150 242 244 257 279 271 251 220 221 249 259 265 251 278 287 288 293 296 300 304 299 304
15 41 349 317 37 334 235 289 280 280 318 291 255 239 258 267 272 251 264 285 259 247 265 250 255 253 259 265 265 266 267 266 256 253 255 270 274 280 294 302 299 294 285 299 307
22 356 323 277 293 290 212 241 279 295 277 264 258 294 285 258 256 281 289 278 266 261 220 200 260 254 260 263 258 261 262 259 256 258 260 263 266 273 285 301 293 279 274 299 308
1 324 279 253 233 258 228 249 303 347 279 263 270 318 294 291 289 280 269 260 249 241 234 212 222 236 263 278 281 268 255 256 256 248 245 252 271 305 305 309 301 289 279 301 310
Height
1517 1514 1512 1510 1508 1506 1505 1503 1502 1501 1500 1499 1498 1497 1495 1494 1492 1490 1489 1490 1490 1489 1490 1491 1493 1494 1496 1499 1501 1501 1500 1500 1501 1501 1496 1495 1491 1494 1496 1499 1499 1501 1498 1495 1492
1516 1513 1511 1509 1507 1505 1503 1501 1500 1499 1498 1497 1496 1495 1493 1492 1490 1489 1489 1488 1488 1488 1489 1491 1492 1493 1496 1498 1499 1498 1495 1492 1491 1491 1491 1492 1492 1493 1494 1496 1494 1497 1498 1493 1491
1515 1512 1510 1507 1505 1502 1500 1499 1498 1497 1497 1495 1495 1494 1492 1491 1490 1490 1489 1489 1489 1489 1489 1490 1491 1492 1495 1495 1495 1494 1492 1493 1489 1490 1490 1491 1492 1493 1491 1493 1492 1492 1491 1490 1488
1513 1510 1508 1505 1502 1500 1498 1497 1496 1496 1495 1494 1493 1492 1491 1491 1492 1490 1490 1490 1490 1491 1491 1490 1491 1491 1494 1494 1494 1493 1493 1493 1490 1489 1490 1492 1490 1489 1489 1485 1490 1490 1490 1488 1486
1512 1509 1506 1503 1500 1498 1496 1494 1494 1493 1493 1492 1492 1491 1491 1491 1490 1490 1490 1491 1492 1492 1492 1492 1493 1492 1491 1493 1493 1492 1493 1493 1491 1490 1488 1489 1486 1485 1481 1483 1484 1488 1488 1484 1485
1510 1507 1504 1501 1498 1496 1494 1492 1491 1491 1491 1491 1491 1490 1490 1491 1489 1489 1490 1491 1491 1492 1492 1492 1493 1492 1492 1493 1491 1493 1493 1491 1489 1486 1484 1483 1481 1483 1480 1481 1484 1483 1485 1481 1480
1508 1505 1502 1499 1497 1495 1493 1491 1490 1490 1490 1489 1489 1488 1489 1488 1488 1489 1490 1491 1491 1491 1492 1492 1492 1492 1493 1491 1492 1492 1490 1487 1486 1484 1479 1479 1476 1476 1482 1479 1480 1477 1481 1481 1481
1505 1502 1500 1497 1496 1494 1492 1490 1489 1488 1489 1489 1489 1488 1486 1486 1488 1489 1489 1490 1491 1491 1492 1492 1492 1492 1492 1491 1491 1490 1491 1486 1483 1483 1479 1479 1471 1478 1480 1479 1476 1477 1478 1474 1475
1503 1500 1497 1496 1495 1494 1492 1491 1489 1488 1488 1488 1488 1488 1486 1486 1488 1488 1489 1490 1490 1490 1490 1490 1491 1491 1492 1490 1490 1492 1489 1489 1483 1481 1480 1480 1479 1478 1480 1478 1475 1472 1472 1471 1469
1500 1498 1495 1494 1494 1493 1492 1491 1490 1490 1489 1489 1488 1490 1487 1487 1487 1487 1488 1489 1489 1489 1490 1490 1490 1489 1491 1490 1490 1490 1490 1489 1487 1479 1479 1476 1475 1476 1474 1474 1471 1470 1466 1466 1468
1497 1495 1494 1493 1493 1493 1492 1492 1494 1492 1488 1488 1488 1487 1486 1486 1486 1487 1488 1488 1489 1489 1488 1490 1488 1487 1486 1488 1488 1488 1488 1487 1483 1480 1480 1474 1473 1469 1468 1466 1464 1463 1462 1462 1463
1496 1494 1493 1493 1493 1493 1493 1492 1493 1494 1490 1485 1485 1485 1485 1486 1486 1486 1487 1489 1488 1488 1490 1490 1487 1484 1486 1486 1487 1488 1486 1483 1482 1480 1479 1471 1467 1464 1460 1457 1456 1456 1458 1459 1460
1494 1492 1491 1492 1494 1495 1494 1494 1493 1492 1491 1486 1484 1484 1485 1486 1485 1483 1485 1486 1486 1487 1487 1487 1484 1485 1486 1485 1485 1483 1484 1483 1483 1479 1476 1472 1456 1457 1453 1452 1452 1452 1452 1452 1451
1493 1491 1491 1492 1495 1494 1495 1494 1493 1493 1490 1486 1484 1484 1484 1484 1483 1481 1482 1485 1485 1484 1487 1486 1484 1484 1484 1483 1483 1483 1481 1481 1482 1482 1478 1475 1463 1452 1448 1447 1449 1449 1448 1448 1449
1493 1491 1492 1493 1494 1494 1494 1492 1492 1493 1494 1485 1483 1483 1482 1484 1482 1479 1479 1480 1480 1482 1486 1481 1480 1482 1482 1478 1479 1479 1480 1480 1480 1479 1479 1469 1473 1447 1447 1445 1445 1446 1448 1448 1448
1495 1494 1494 1494 1494 1494 1492 1491 1492 1493 1493 1484 1483 1483 1482 1481 1480 1478 1478 1478 1477 1478 1480 1476 1479 1479 1475 1476 1477 1479 1479 1477 1481 1478 1473 1464 1465 1443 1441 1439 1442 1442 1443 1446 1446
1497 1496 1496 1495 1494 1492 1491 1492 1492 1489 1485 1485 1483 1483 1483 1481 1479 1479 1478 1477 1475 1479 1475 1474 1473 1473 1475 1474 1477 1477 1478 1476 1473 1467 1459 1464 1462 1443 1440 1439 1439 1438 1439 1443 1444
1498 1497 1496 1494 1493 1492 1491 1492 1493 1485 1484 1482 1482 1482 1481 1480 1479 1479 1477 1475 1476 1476 1475 1472 1472 1470 1472 1471 1471 1474 1476 1479 1482 1467 1456 1456 1451 1432 1435 1438 1439 1438 1439 1439 1439
1499 1497 1495 1494 1492 1491 1492 1493 1484 1485 1484 1483 1480 1481 1480 1479 1480 1478 1475 1472 1470 1472 1472 1476 1473 1470 1471 1471 1472 1475 1476 1477 1474 1470 1472 1450 1435 1433 1429 1432 1432 1433 1435 1435 1436
1497 1495 1494 1492 1491 1490 1490 1488 1486 1483 1483 1483 1483 1478 1479 1478 1479 1477 1474 1469 1469 1470 1471 1472 1474 1469 1468 1470 1470 1469 1472 1476 1480 1477 1467 1442 1437 1430 1427 1427 1429 1429 1429 1429 1428
1494 1494 1493 1491 1490 1490 1489 1487 1484 1483 1483 1482 1478 1477 1476 1476 1475 1475 1471 1467 1467 1469 1472 1472 1475 1469 1470 1466 1463 1468 1468 1472 1473 1472 1462 1450 1425 1424 1425 1425 1427 1427 1425 1424 1423
1493 1493 1491 1491 1492 1493 1490 1489 1486 1481 1480 1479 1477 1474 1474 1473 1473 1472 1469 1465 1466 1467 1469 1470 1471 1466 1462 1459 1463 1462 1461 1462 1464 1460 1461 1457 1421 1420 1422 1424 1425 1424 1422 1419 1417
1493 1491 1490 1489 1490 1491 1491 1488 1485 1481 1479 1477 1475 1474 1474 1473 1473 1468 1465 1465 1465 1465 1466 1470 1468 1464 1455 1459 1463 1460 1458 1459 1462 1464 1460 1458 1421 1419 1421 1419 1420 1420 1419 1414 1411
1496 1493 1490 1489 1492 1493 1494 1487 1483 1480 1478 1477 1474 1474 1474 1472 1471 1466 1466 1466 1467 1467 1467 1469 1466 1461 1457 1449 1458 1457 1454 1453 1455 1460 1442 1439 1418 1416 1416 1415 1414 1413 1412 1408 1404
1498 1501 1501 1493 1493 1494 1495 1490 1483 1480 1477 1477 1473 1473 1473 1472 1470 1467 1466 1467 1466 1466 1466 1467 1462 1459 1454 1452 1452 1449 1445 1443 1444 1439 1443 1430 1427 1412 1410 1408 1407 1406 1404 1402 1398
1502 1503 1500 1497 1496 1495 1492 1485 1484 1481 1481 1475 1474 1473 1474 1473 1470 1466 1466 1467 1464 1461 1459 1461 1454 1451 1450 1447 1447 1444 1435 1432 1430 1428 1427 1421 1418 1409 1407 1404 1401 1399 1398 1395 1392
1501 1502 1501 1494 1494 1493 1486 1484 1483 1486 1478 1476 1475 1475 1471 1468 1468 1465 1464 1461 1459 1458 1456 1456 1452 1453 1444 1441 1441 1435 1416 1415 1414 1414 1414 1411 1402 1401 1401 1399 1397 1393 1393 1390 1385